GW4516 Weather Reports


time (UTC)temp
C
wind
direction
speed
KPH
gust
KPH
rain 1hr
cm
rain 24hr
cm
rain mn
cm
humidity
%
barometer
mb
20260502162916 14 222 3.2 4.8 0.00 0.00 0.00 32 1025.2
20260502162015 13 292 3.2 8.0 0.00 0.00 0.00 32 1025.3
20260502151116 12 247 0.0 3.2 0.00 0.00 0.00 41 1025.9
20260502150214 12 248 3.2 4.8 0.00 0.00 0.00 41 1026.1
20260502150116 12 276 3.2 6.4 0.00 0.00 0.00 41 1026.1
20260502130514 3 247 1.6 3.2 0.00 0.00 0.00 84 1026.4
20260502130416 2 247 3.2 3.2 0.00 0.00 0.00 84 1026.4
20260502123515 0 292 1.6 1.6 0.00 0.00 0.00 93 1025.9
20260502120617 -1 292 0.0 0.0 0.00 0.00 0.00 94 1025.7
20260502115614 -1 292 0.0 0.0 0.00 0.00 0.00 94 1025.6
20260502113615 -1 292 0.0 0.0 0.00 0.00 0.00 94 1025.5
20260502112616 -1 292 0.0 0.0 0.00 0.03 0.00 93 1025.4
20260502111614 -1 292 0.0 0.0 0.00 0.03 0.00 92 1025.4
20260502110616 -1 292 0.0 0.0 0.00 0.03 0.00 93 1025.3
20260502105714 -1 292 0.0 0.0 0.00 0.03 0.00 93 1025.3
20260502104715 -1 292 0.0 0.0 0.00 0.03 0.00 92 1025.3
20260502103716 -1 292 0.0 0.0 0.00 0.03 0.00 91 1025.2
20260502100716 -1 292 0.0 0.0 0.00 0.03 0.00 91 1025.2
20260502090717 -1 292 0.0 0.0 0.00 0.03 0.00 90 1025.0
20260502071114 0 292 0.0 0.0 0.00 0.03 0.00 84 1025.3
20260502070116 0 292 0.0 0.0 0.00 0.03 0.00 84 1025.4
20260502063215 0 292 0.0 0.0 0.00 0.03 0.00 82 1025.5
20260502062216 1 292 0.0 0.0 0.00 0.03 0.00 81 1025.5
20260502061215 1 292 0.0 0.0 0.00 0.03 0.00 82 1025.5
20260502060215 1 292 0.0 0.0 0.00 0.03 0.00 81 1025.5
20260502054213 1 292 0.0 0.0 0.00 0.03 0.00 78 1025.4
20260502053214 1 292 0.0 0.0 0.00 0.03 0.00 76 1025.3
20260502052216 1 292 0.0 0.0 0.00 0.03 0.00 77 1025.2
20260502052116 1 292 0.0 0.0 0.00 0.03 0.00 77 1025.3
20260502050115 2 292 0.0 0.0 0.00 0.03 0.00 73 1025.2
20260502045125 2 292 0.0 0.0 0.00 0.03 0.03 72 1025.2
20260502044123 2 292 0.0 0.0 0.00 0.03 0.03 69 1025.2
20260502043126 3 292 0.0 0.0 0.00 0.03 0.03 67 1025.2
20260502041125 3 292 0.0 0.0 0.00 0.03 0.03 63 1025.2
20260502040124 3 337 0.0 0.0 0.00 0.03 0.03 61 1025.1
20260502033226 5 337 0.0 0.0 0.00 0.03 0.03 55 1025.0
20260502031228 6 337 0.0 0.0 0.00 0.03 0.03 54 1025.0
20260502030225 6 360 0.0 1.6 0.00 0.03 0.03 53 1024.9
20260502024327 7 292 0.0 1.6 0.00 0.03 0.03 51 1024.7
20260502021326 7 347 1.6 4.8 0.00 0.03 0.03 48 1024.6
20260502020325 8 343 1.6 3.2 0.00 0.03 0.03 48 1024.3
20260502015323 8 337 0.0 0.0 0.00 0.03 0.03 47 1024.2
20260502013323 9 337 0.0 0.0 0.00 0.03 0.03 45 1024.0
20260502012323 9 292 0.0 0.0 0.00 0.03 0.03 44 1023.9
20260502010425 10 292 0.0 0.0 0.00 0.03 0.03 43 1023.8
20260502005425 10 337 0.0 1.6 0.00 0.03 0.03 42 1023.7
20260502005326 10 337 0.0 0.0 0.00 0.03 0.03 42 1023.6
20260502004424 10 342 3.2 8.0 0.00 0.03 0.03 41 1023.5
20260502003427 10 351 4.8 9.7 0.00 0.03 0.03 41 1023.5
20260502001427 11 7 0.0 6.4 0.00 0.03 0.03 40 1023.3
20260502000524 11 154 0.0 3.2 0.00 0.03 0.03 40 1023.3
20260501235525 11 49 0.0 6.4 0.00 0.03 0.03 40 1023.3
20260501232526 11 311 1.6 4.8 0.00 0.03 0.03 40 1023.3
20260501231624 11 340 0.0 3.2 0.00 0.03 0.03 40 1023.3
20260501230626 11 345 4.8 9.7 0.00 0.03 0.03 40 1023.2
20260501225624 11 332 1.6 6.4 0.00 0.03 0.03 40 1023.3
20260501224625 11 292 0.0 1.6 0.00 0.03 0.03 40 1023.2
20260501223626 11 2 1.6 4.8 0.00 0.03 0.03 42 1023.1
20260501223526 11 330 3.2 6.4 0.00 0.03 0.03 42 1023.2
20260501222624 11 22 0.0 1.6 0.00 0.03 0.03 42 1023.1
20260501221625 11 10 1.6 4.8 0.00 0.03 0.03 42 1023.1
20260501220723 11 96 0.0 1.6 0.00 0.03 0.03 42 1023.1
20260501215724 11 6 4.8 12.9 0.00 0.03 0.03 42 1023.1
20260501213823 12 8 4.8 9.7 0.00 0.03 0.03 41 1023.1
20260501212826 12 71 4.8 8.0 0.00 0.03 0.03 42 1023.0
20260501211825 11 25 3.2 16.1 0.00 0.03 0.03 42 1023.1
20260501210923 11 302 1.6 6.4 0.00 0.03 0.03 43 1023.3
20260501205925 11 294 3.2 9.7 0.00 0.03 0.03 44 1023.4
20260501204925 11 356 6.4 9.7 0.00 0.03 0.03 45 1023.3
20260501204826 11 18 3.2 8.0 0.00 0.03 0.03 45 1023.3
20260501203824 11 8 3.2 8.0 0.00 0.03 0.03 46 1023.5
20260501202825 11 337 4.8 8.0 0.00 0.03 0.03 44 1023.4
20260501201924 11 330 3.2 6.4 0.00 0.03 0.03 43 1023.3
20260501200923 12 38 1.6 4.8 0.00 0.03 0.03 45 1023.4
20260501195924 11 310 1.6 4.8 0.00 0.03 0.03 46 1023.4
20260501194925 11 270 0.0 3.2 0.00 0.03 0.03 47 1023.5
20260501192925 10 351 4.8 8.0 0.00 0.03 0.03 51 1023.3
20260501191923 10 269 3.2 6.4 0.00 0.03 0.03 52 1023.7
20260501185924 10 25 1.6 3.2 0.00 0.03 0.03 51 1023.5
20260501184924 10 286 3.2 4.8 0.00 0.03 0.03 49 1023.5
20260501183923 11 334 6.4 11.3 0.00 0.03 0.03 45 1023.3
20260501182926 11 352 3.2 6.4 0.00 0.03 0.03 43 1023.3
20260501182023 11 329 3.2 9.7 0.00 0.03 0.03 43 1023.3
20260501180023 11 15 3.2 8.0 0.00 0.03 0.03 45 1023.2
20260501175123 11 312 1.6 6.4 0.00 0.03 0.03 45 1023.3
20260501174125 11 16 4.8 9.7 0.00 0.03 0.03 45 1023.2
20260501172123 12 279 1.6 4.8 0.00 0.03 0.03 43 1023.2